CAPE
0 0 0 13 29 18 11 1 2 0 5 3 6 7 4 1 0 0 0 0 0 0 0 0 0 0 0 25 54 43 38 10 5 1 0 0 0 11 20 40 41 35 4 0 0
16 21 15 6 12 16 26 28 13 16 27 13 2 9 2 5 0 0 0 0 0 0 0 0 0 0 0 25 52 48 41 18 9 0 0 0 0 0 19 40 37 48 2 0 0
10 19 15 20 12 2 1 33 31 33 28 28 18 28 6 0 0 0 0 47 0 0 0 0 0 0 0 0 34 59 20 51 29 6 0 0 0 0 0 0 0 8 5 0 1
10 13 1 0 5 3 2 25 21 14 21 31 39 25 1 0 0 0 0 0 0 0 0 0 0 0 0 1 6 17 30 27 14 40 18 0 0 0 0 0 0 0 0 0 1
4 0 0 0 0 0 0 3 21 14 12 24 39 10 0 0 0 0 0 0 0 0 0 0 0 0 0 5 13 1 0 25 38 28 28 3 0 0 0 0 0 3 0 0 1
0 0 0 0 0 0 0 2 12 1 1 21 11 6 0 0 0 0 0 0 0 0 0 18 4 9 8 0 3 19 14 6 7 9 37 17 0 2 0 0 0 0 0 0 0
0 0 0 0 0 0 0 0 0 0 23 41 27 11 3 0 0 0 0 0 0 0 0 0 3 3 5 2 0 1 0 1 1 1 36 40 0 0 0 0 0 10 12 0 0
0 0 0 0 0 0 0 0 0 0 17 51 27 5 0 0 0 0 0 0 0 0 0 0 0 4 0 0 0 15 25 0 0 0 24 34 0 0 0 0 0 0 24 4 0
0 0 0 0 0 0 0 0 0 0 19 61 3 1 0 0 0 0 0 0 0 0 0 0 0 0 3 0 2 1 2 9 10 13 4 16 3 0 0 0 0 0 6 2 2
0 0 0 0 0 0 0 0 0 0 0 0 0 0 0 0 0 0 0 0 0 0 0 0 0 0 0 0 0 0 5 4 13 22 37 0 7 0 0 0 0 0 0 0 0
0 0 0 0 0 0 0 0 0 0 0 0 0 0 0 0 0 0 0 0 0 0 0 0 0 0 0 0 0 0 0 4 6 6 9 0 26 17 0 0 0 0 3 0 0
0 0 0 0 0 0 0 0 0 0 0 0 0 0 0 0 0 0 0 0 0 0 0 0 0 0 0 0 0 0 2 0 2 1 1 1 5 0 1 0 0 0 10 1 0
0 0 0 0 0 0 0 0 0 0 0 0 0 0 0 0 0 0 0 0 0 0 0 0 0 0 0 0 0 0 0 1 1 17 2 5 1 0 0 0 0 4 15 11 0
0 0 0 0 0 0 0 0 0 0 0 0 0 0 0 0 0 0 0 2 19 0 0 0 0 0 0 0 0 0 0 0 0 6 12 0 1 0 0 0 0 0 15 12 2
0 0 0 0 0 0 0 0 0 0 0 0 0 0 0 0 0 0 0 0 0 0 0 0 0 0 0 0 0 0 0 0 0 0 1 0 22 0 0 0 0 0 0 1 1
0 0 0 0 0 0 0 0 0 0 0 0 0 0 0 0 0 0 0 0 1 1 0 0 0 1 0 0 0 1 0 4 3 0 0 0 0 0 0 0 0 0 0 2 4
0 0 0 0 0 0 0 0 0 0 0 0 0 0 0 0 0 0 0 0 8 0 0 0 1 0 1 0 13 1 2 0 4 0 0 0 1 0 0 0 0 0 0 13 22
0 0 0 0 0 0 0 0 0 0 0 0 0 0 0 0 0 0 0 0 1 0 0 0 0 0 0 0 0 0 0 1 14 0 0 0 0 0 0 0 0 0 0 9 23
0 0 0 0 0 0 0 0 0 0 0 0 0 0 0 0 0 0 0 0 0 0 0 0 0 0 0 0 7 3 0 0 0 0 2 0 0 0 0 0 0 0 0 15 0
0 0 0 0 0 0 0 0 0 0 0 0 0 0 0 0 0 0 0 0 0 0 0 0 0 0 0 0 0 1 0 2 0 0 0 0 0 0 0 0 0 11 0 5 0
0 0 0 0 0 0 0 0 0 0 0 0 0 0 0 0 0 0 0 0 0 0 0 0 0 0 0 0 2 1 0 7 0 0 0 0 0 0 0 0 0 0 6 0 0
0 0 0 0 0 0 0 0 0 0 0 0 0 1 0 0 0 0 0 0 0 0 2 0 0 0 0 0 1 1 0 0 0 0 0 0 0 0 0 0 9 0 0 1 3
0 0 0 0 0 0 0 0 0 0 0 0 0 0 0 0 0 0 0 0 0 0 0 0 0 0 0 0 0 0 0 1 0 0 0 0 0 0 1 0 0 0 0 1 3
0 0 0 0 0 0 0 0 0 0 0 0 0 0 0 0 0 0 1 0 0 0 0 0 7 0 0 0 0 0 0 4 0 0 0 0 1 2 1 2 2 3 1 2 4
0 0 0 0 0 0 0 0 0 0 0 5 0 0 0 0 0 0 0 0 0 0 0 0 0 0 0 0 0 0 0 0 0 0 0 0 0 1 0 0 2 2 2 1 1
0 0 0 0 0 0 0 0 0 0 0 0 0 0 3 0 0 0 0 0 1 0 0 0 0 0 0 0 0 0 0 0 1 4 0 0 0 0 1 1 1 1 1 1 1
0 0 0 0 0 0 0 0 0 0 0 0 0 0 0 0 0 0 0 2 1 1 0 1 0 0 0 0 0 0 0 0 0 2 0 0 1 0 0 0 1 1 0 0 0
CIN
0 0 0 0 0 0 0 0 0 0 0 0 0 0 0 0 0 0 0 0 0 0 0 0 0 0 -1 -3 -2 -11 0 0 0 0 0 0 0 -113 -121 -81 -117 -155 -126 0 0
0 0 0 0 0 0 0 0 0 0 0 0 0 0 0 0 0 0 0 0 0 0 0 0 0 0 0 -2 -2 0 0 -1 -1 -9 0 0 0 0 -81 -61 -71 -90 -151 0 0
-2 -3 -3 0 0 0 0 0 0 0 0 0 0 0 0 0 0 0 0 -6 0 0 0 0 0 0 0 -1 -1 -1 0 -2 -3 -3 0 0 0 0 0 0 0 -60 -60 0 -215
-1 -4 -2 0 0 0 0 0 0 0 0 0 0 0 0 0 0 0 0 0 0 0 0 0 0 0 0 0 -14 -17 -4 -3 -7 -8 -8 0 0 0 0 0 0 -7 0 0 -228
-4 0 0 0 0 0 0 0 0 0 0 0 0 0 0 0 0 0 0 0 0 0 0 0 0 0 0 0 -3 -23 0 -5 -9 -30 -11 -2 0 0 0 0 0 -84 0 0 -112
0 0 0 0 0 0 0 0 0 0 0 0 -1 0 0 0 0 0 0 0 0 0 0 -10 -5 -4 -1 0 -3 -2 -26 -23 -4 -13 -12 -8 0 -23 0 0 0 0 0 0 0
0 0 0 0 0 0 0 0 0 0 0 0 0 -1 0 0 0 0 0 0 0 0 0 0 -26 -15 -14 -1 0 0 0 -25 -7 0 -2 -7 -2 0 0 0 0 -82 -93 0 0
0 0 0 0 0 0 0 0 0 0 -1 0 0 0 0 0 0 0 0 0 0 0 0 0 0 -22 -1 0 0 -3 -4 0 0 0 -3 -3 0 0 0 0 0 -5 -72 -111 0
0 0 0 0 0 0 0 0 0 0 0 0 0 0 0 0 0 0 0 0 0 0 0 0 0 0 -3 0 0 0 0 -1 -1 -11 -16 -8 0 0 0 0 0 -5 -107 -65 -170
0 0 0 0 0 0 0 0 0 0 0 0 0 0 0 0 0 0 0 0 0 0 0 0 0 0 0 0 0 0 0 0 -2 -6 -22 -1 0 -1 0 0 0 0 -18 0 0
0 0 0 0 0 0 0 0 0 0 0 0 0 0 0 0 0 0 0 0 0 0 0 0 0 0 0 0 0 0 0 -2 -4 -8 0 -9 0 0 0 0 0 -5 -88 0 0
0 0 0 0 0 0 0 0 0 -1 0 0 0 0 0 0 0 0 0 0 0 0 0 0 0 0 0 0 0 0 -1 0 -1 -58 0 -4 -1 0 -37 0 0 0 -83 -67 0
0 0 0 0 0 0 0 0 0 0 0 0 0 0 0 0 0 0 0 0 0 0 0 0 0 0 0 0 0 0 0 -1 0 -28 -4 -1 0 0 0 0 0 -22 -39 -92 -17
0 0 0 0 0 0 0 0 0 0 0 0 0 0 0 0 0 0 0 -82 -67 0 -9 0 0 0 0 0 0 0 0 0 0 0 -1 0 -1 0 0 0 0 0 -19 -60 -81
0 0 0 0 0 0 0 0 0 0 0 0 0 0 0 0 0 0 0 0 0 0 0 0 0 0 0 0 0 0 0 0 0 0 -4 0 -2 0 0 0 0 0 0 -25 -13
0 0 0 0 0 0 0 0 0 0 0 0 0 0 0 0 0 0 0 0 0 0 0 0 0 0 0 0 0 -1 0 0 -1 0 -17 0 -1 0 0 0 0 0 0 -5 -58
0 0 0 0 0 0 0 0 0 0 0 0 0 0 0 0 0 0 0 0 -10 0 0 0 0 0 0 0 -11 0 0 0 -24 -28 -7 0 0 0 0 0 0 0 0 -19 -64
0 0 0 0 0 0 0 0 0 0 0 0 0 0 0 0 0 0 0 0 -8 0 0 0 0 0 0 0 0 0 0 -6 -9 -4 0 0 0 0 0 0 0 0 0 -15 -27
0 0 0 0 0 0 0 0 0 0 0 0 0 0 0 0 0 0 0 -2 0 0 0 0 0 0 0 0 -2 0 0 0 -9 0 -25 0 0 0 0 0 0 0 -15 -11 0
0 0 0 0 0 0 0 0 0 0 0 0 0 0 0 0 0 0 0 0 0 0 0 0 0 0 0 0 0 0 0 0 0 0 0 0 0 0 0 0 0 -1 0 -16 0
0 0 0 0 0 0 0 0 0 0 0 0 0 0 0 -1 0 0 0 0 0 0 0 0 0 0 0 0 -3 -1 -1 -31 0 0 0 0 0 0 0 0 -1 0 -11 0 0
0 0 0 0 0 0 0 0 0 0 0 0 0 -6 -2 -1 0 0 0 0 0 0 0 0 0 0 0 0 0 0 0 -1 0 0 0 0 0 0 0 0 -5 0 0 0 0
0 0 0 0 0 0 0 0 0 0 0 0 0 0 0 0 0 0 0 0 0 0 0 0 0 0 0 0 0 0 0 0 0 0 0 0 0 0 0 0 0 0 0 0 0
0 0 0 0 0 0 0 0 0 0 0 0 0 0 0 0 0 0 -1 0 0 0 0 0 -5 0 0 0 0 0 0 0 0 0 0 0 0 0 0 0 0 0 0 0 0
0 0 0 0 0 0 0 0 0 0 0 -3 0 0 -2 0 0 0 0 0 0 0 0 0 0 0 0 0 0 0 0 0 0 0 0 0 0 0 0 0 0 0 0 0 0
0 0 0 0 0 0 0 0 0 0 0 0 0 0 -6 -1 0 0 0 0 0 0 0 0 0 0 0 0 0 0 0 0 0 0 0 0 0 0 0 0 0 0 0 0 0
0 0 0 0 0 0 0 0 0 -1 0 0 0 0 0 0 0 0 0 0 0 0 0 0 0 0 0 0 0 0 0 0 0 0 0 0 0 0 0 0 0 0 0 0 0
Wind_Speed
22 21 22 23 23 23 25 26 28 30 30 32 33 34 35 36 39 35 36 29 31 35 34 34 30 30 29 29 25 25 41 47 39 38 33 22 24 24 22 23 24 22 23 20 4
20 19 21 20 21 24 25 27 28 29 29 30 32 34 35 36 39 39 26 23 27 28 30 32 34 33 34 32 31 34 44 49 40 34 34 28 27 25 27 28 26 25 24 18 7
21 20 20 18 19 21 22 22 23 25 26 27 29 30 33 34 37 28 19 25 31 29 26 27 29 32 39 36 34 37 51 41 41 36 35 37 33 27 31 35 31 33 29 18 12
19 18 19 19 19 21 22 22 23 24 24 26 27 29 31 29 36 24 25 33 32 31 27 26 28 33 39 44 39 45 45 43 41 37 38 38 32 34 30 34 27 31 29 19 15
18 17 19 19 20 21 22 22 23 23 23 24 26 27 27 30 30 30 31 29 31 30 29 28 29 32 41 40 43 55 51 40 41 44 42 37 38 39 36 31 28 23 24 22 18
20 19 19 20 20 22 22 22 22 23 23 23 23 22 24 34 24 27 29 33 30 27 28 27 29 29 38 43 48 44 48 50 44 44 44 44 44 37 35 36 35 24 28 26 20
22 22 22 22 23 23 23 23 23 22 21 20 18 18 21 22 24 31 32 28 26 26 30 29 30 31 31 37 40 49 55 52 52 43 41 39 57 59 38 33 39 32 34 31 28
23 24 24 24 24 24 24 24 22 21 19 17 17 17 20 23 21 25 25 25 26 26 27 25 27 33 35 36 41 45 48 61 51 46 42 36 66 46 39 37 41 39 36 39 31
25 25 25 26 26 26 25 23 21 19 17 16 16 16 20 22 24 24 21 32 33 29 24 25 26 34 34 40 45 44 56 57 54 47 43 45 55 43 34 35 39 40 43 41 38
25 25 26 27 28 28 27 24 21 19 19 17 16 17 16 24 30 28 28 26 28 27 26 24 29 38 38 42 55 51 51 52 51 39 47 53 54 43 36 38 42 39 39 42 37
25 26 27 28 29 30 30 25 29 25 24 23 19 15 18 23 31 27 30 26 22 23 29 26 35 44 46 45 47 48 51 49 48 39 38 52 50 45 42 37 40 37 40 38 38
25 26 27 28 28 29 28 29 26 23 31 19 13 11 14 22 30 33 22 24 24 32 29 33 45 44 41 42 47 50 53 51 49 43 39 43 47 47 44 43 38 39 39 35 35
25 26 28 29 24 25 27 26 21 21 28 24 15 16 20 23 27 35 21 25 24 32 33 42 50 37 39 42 47 52 56 48 49 41 38 39 47 51 47 47 41 37 39 35 37
26 27 27 27 23 24 25 23 21 20 33 24 20 18 23 32 20 23 19 16 21 30 26 31 38 41 42 44 41 55 49 44 40 39 52 39 54 45 46 47 45 39 39 35 35
27 28 27 25 23 25 24 23 20 21 40 26 20 19 34 26 17 24 21 13 15 21 13 20 32 31 39 46 34 48 41 43 47 38 39 42 47 43 38 45 41 36 40 33 36
26 27 25 23 22 22 24 22 22 31 34 28 19 23 32 25 21 19 27 2 18 17 13 21 9 33 41 42 39 32 35 40 29 33 44 43 46 44 42 43 38 40 39 32 36
26 24 23 22 25 23 23 24 32 33 28 26 26 23 25 23 30 26 23 17 12 9 14 13 21 25 30 31 41 46 35 32 41 41 42 34 42 49 36 37 38 37 38 30 34
26 23 21 21 22 23 24 28 34 28 28 22 23 23 23 32 22 23 16 14 11 12 16 7 13 23 23 29 39 50 44 23 36 42 39 31 46 42 33 38 39 37 34 32 31
23 21 21 22 22 22 26 32 30 28 23 25 23 23 23 30 22 19 16 14 15 17 13 13 11 17 26 23 23 32 39 30 19 19 32 36 38 35 31 36 30 32 30 31 34
24 23 23 23 21 22 26 28 25 20 22 23 23 21 21 28 21 20 15 15 18 21 20 16 13 11 16 17 23 27 22 27 22 23 30 30 35 35 29 29 26 30 29 28 30
25 27 21 23 21 25 29 26 25 19 18 20 20 18 16 24 21 18 17 18 19 23 17 17 13 14 15 17 23 19 23 22 21 21 21 27 30 23 27 29 25 27 26 23 27
25 31 22 22 30 27 29 24 23 21 19 18 15 14 13 23 19 18 19 19 23 23 16 14 11 10 11 16 23 17 24 26 26 21 23 22 23 21 26 28 19 24 25 20 23
28 25 20 24 35 35 26 24 19 19 21 17 12 14 15 22 20 21 20 22 23 22 19 14 10 7 4 9 3 13 22 23 17 18 20 19 16 16 11 12 16 22 21 19 20
26 31 27 27 27 30 28 22 20 15 15 9 5 7 9 16 21 23 23 21 25 21 20 14 11 7 9 14 12 17 16 19 12 11 11 10 11 11 8 11 16 21 20 19 19
26 27 26 32 29 27 23 18 14 14 9 7 8 10 10 3 24 20 24 26 23 19 22 15 14 11 11 12 12 13 12 10 7 4 2 5 6 7 10 8 14 16 18 19 17
25 26 24 24 22 23 22 19 16 11 9 8 7 2 7 6 24 27 26 25 22 24 23 21 15 13 12 10 9 5 3 6 3 4 3 1 2 6 5 5 7 8 12 16 18
20 20 23 23 22 22 20 19 18 13 11 11 13 4 2 4 3 29 31 30 29 27 23 19 15 13 13 11 12 11 5 5 4 1 4 2 5 5 0 1 4 1 5 6 5
Wind_Direction
3 1 359 357 356 354 351 346 341 337 334 331 329 327 325 323 318 316 307 308 303 297 292 288 284 284 279 270 267 268 259 257 257 256 261 269 268 273 279 273 270 271 271 274 258
7 6 3 5 2 354 348 344 341 340 339 336 333 329 327 325 317 310 313 317 319 311 295 284 276 276 269 267 262 256 257 256 259 259 260 264 266 272 270 267 267 269 273 271 243
6 6 7 9 6 1 358 355 352 348 345 342 339 336 334 330 319 315 320 320 317 314 304 290 281 274 263 262 260 259 256 262 261 261 260 262 265 269 267 262 265 263 265 263 248
9 14 14 11 8 5 1 357 355 352 350 346 344 340 336 333 313 326 320 312 312 308 301 294 281 272 264 257 258 261 260 259 262 262 260 258 264 263 265 263 276 269 259 253 248
20 23 20 15 10 6 2 0 357 355 354 351 347 344 341 328 317 316 314 315 312 306 294 287 281 274 264 262 260 254 258 264 262 259 260 260 258 260 261 264 273 275 256 251 249
28 26 22 16 12 6 5 4 3 359 356 354 352 354 343 323 329 321 318 312 311 308 295 285 282 280 271 263 257 260 259 259 263 260 257 256 256 259 262 260 261 267 257 251 245
28 27 21 17 11 8 8 6 2 1 0 360 2 358 342 327 330 318 313 316 317 310 294 288 284 277 277 270 264 260 256 257 254 258 257 256 252 247 258 261 255 258 254 249 247
30 27 24 16 13 12 9 5 4 5 4 4 4 358 339 336 337 329 326 322 321 315 302 300 291 277 271 273 267 259 255 248 250 251 254 253 246 253 255 256 256 251 251 242 245
31 28 23 17 14 12 8 6 6 5 7 4 1 358 341 339 334 337 333 313 310 308 305 299 291 273 269 264 261 254 248 246 249 248 250 246 251 255 255 253 252 249 244 244 243
30 28 22 17 14 10 7 4 10 13 16 19 14 2 353 339 329 330 329 325 315 312 304 295 282 267 263 255 249 248 249 247 244 251 245 247 250 254 254 253 252 249 244 243 244
30 25 20 16 13 11 11 16 10 12 10 356 347 340 331 340 327 333 330 326 323 312 295 294 274 261 259 256 254 253 249 247 246 248 251 244 248 250 250 254 251 247 242 243 245
28 24 18 13 13 14 18 14 15 9 358 358 349 347 344 343 332 331 343 331 320 302 300 288 269 267 266 259 252 248 245 248 249 246 254 252 250 250 249 249 251 249 242 242 242
25 20 12 10 16 18 18 16 19 16 360 4 20 10 360 352 341 323 343 334 319 304 298 282 264 273 261 255 249 245 238 245 250 241 247 254 253 248 248 249 251 250 242 241 236
21 16 11 12 18 15 12 14 14 19 358 10 17 17 358 344 353 349 350 345 331 311 312 300 275 261 256 252 249 242 235 246 251 239 240 244 247 249 245 246 246 244 240 237 232
17 14 14 20 15 12 11 10 17 18 355 10 16 13 344 357 353 360 6 5 239 237 203 253 278 269 253 244 247 239 234 246 249 244 243 243 247 249 247 244 242 237 237 234 230
16 14 17 19 20 18 10 15 17 3 357 3 14 3 355 4 6 6 351 248 263 243 217 245 285 244 220 229 236 227 234 246 238 243 237 239 241 246 243 243 247 238 236 233 232
13 14 19 20 10 11 14 13 1 0 6 6 5 7 3 9 350 300 287 275 258 268 271 277 184 194 201 202 203 213 231 227 230 236 238 243 240 243 251 253 250 232 231 231 228
11 15 17 20 15 15 15 6 356 1 0 5 9 9 18 1 296 290 264 258 263 293 280 203 205 224 243 222 200 189 216 228 232 232 238 246 242 247 257 258 251 235 229 228 225
13 13 14 14 15 18 9 358 358 1 9 5 8 20 19 4 296 288 263 250 282 305 290 238 235 257 222 240 232 214 212 236 246 253 247 246 249 260 261 257 238 224 218 222 223
14 12 15 14 17 14 4 357 0 10 11 14 14 23 19 314 298 288 259 259 295 307 303 254 239 234 234 245 225 223 222 231 235 247 246 247 246 247 257 246 223 219 216 221 218
17 10 19 15 18 9 358 359 359 11 16 18 19 22 27 299 290 278 265 270 305 305 294 281 229 248 265 243 222 220 226 231 235 250 256 250 247 257 252 244 222 217 215 214 212
18 6 18 23 6 10 0 1 3 10 17 20 31 36 36 292 280 282 275 270 302 306 290 272 234 244 214 200 196 217 211 212 221 249 259 263 256 259 250 240 218 209 212 214 216
13 16 34 26 9 4 8 7 15 18 13 24 42 44 37 291 280 280 278 277 296 299 306 271 234 272 215 179 252 214 207 210 234 265 260 244 249 251 262 228 216 207 209 214 218
20 12 21 31 28 20 19 25 25 37 32 70 76 77 56 264 288 281 281 280 291 298 301 284 216 271 242 225 229 202 205 200 241 260 242 241 233 238 265 229 219 214 216 219 224
25 21 25 16 24 32 40 48 51 53 93 89 80 66 53 79 289 281 291 292 296 294 307 295 218 258 248 261 251 212 217 221 241 249 258 238 215 243 233 229 226 218 216 223 231
21 23 29 26 37 36 45 52 53 69 81 81 77 59 56 69 279 279 288 291 284 289 295 293 237 259 238 259 238 226 294 229 245 234 205 195 161 238 247 211 199 199 209 218 222
38 40 33 34 39 39 44 43 44 45 65 58 39 1 348 22 211 284 284 275 268 280 283 270 253 252 230 249 223 194 253 253 252 340 215 139 229 247 9 179 202 197 206 209 226